Location: ??????
(42.0089°N, 44.3281°E)
Time: 17:36:31
(UTC+00:00)

USA 267 - Pass Details

Date: 03 June 2022
Orbit: 1101 x 1106 km, 123.0° (Epoch: 28 June)

Event Time Altitude Azimuth Distance (km) Brightness Sun altitude
Rises 18:24:56 0° 58° (ENE) 3,922 6.1 -16.2°
Reaches altitude 10° 18:27:55 10° 45° (NE) 2,964 5.6 -16.5°
Maximum altitude 18:32:53 24° 355° (N) 2,111 5.4 -17.1°
Drops below altitude 10° 18:37:52 10° 305° (NW) 2,965 6.6 -17.6°
Sets 18:40:50 0° 293° (WNW) 3,923 7.1 -17.9°
